Regional Weather Roundup
Issued by NWS Mt. Holly, NJ

Home | Current Version | Previous Version | Text Only | Print | Product List | Glossary On
Versions: 1 2 3 4 5 6 7 8 9 10 11 12 13 14 15 16 17 18 19 20 21 22 23 24 25 26 27
594
ASUS41 KPHI 221611
RWRPHI

REGIONAL WEATHER ROUNDUP
NATIONAL WEATHER SERVICE MOUNT HOLLY NJ
1200 PM EDT FRI MAY 22 2015

NOTE:  "FAIR" INDICATES FEW OR NO CLOUDS BELOW 12,000 FEET WITH NO
SIGNIFICANT WEATHER AND/OR OBSTRUCTIONS TO VISIBILITY.

 * = STATION DOES NOT REPORT PRECIPITATION (E.G. RAIN, SNOW, ETC.)
        OR FOG.

NJZ015>026-221700-
SOUTHERN NEW JERSEY

CITY           SKY/WX    TMP DP  RH WIND       PRES   REMARKS
POMONA           N/A     69  44  40 NW13G20   30.01S
RIO GRANDE*    SUNNY     64  46  52 W12G18    30.07R
MILLVILLE      SUNNY     69  45  41 W14       30.03S
WRIGHTSTOWN    SUNNY     69  44  39 W14G22    29.96F
MOUNT HOLLY    SUNNY     69  43  38 W8        29.99S
TRENTON        SUNNY     72  40  31 W15G28    29.97S

$$
NJZ001>014-221700-
NORTHERN NEW JERSEY

CITY           SKY/WX    TMP DP  RH WIND       PRES   REMARKS
SUSSEX         SUNNY     68  40  35 NW8G20    29.95S
ANDOVER*         N/A     68  41  37 N13G20    29.94F
MORRISTOWN     MOSUNNY   73  43  33 W10G24    29.93F
NEWARK         MOSUNNY   73  40  30 NW16G24   29.92F
TETERBORO      SUNNY     72  39  30 W16G23    29.91F
CALDWELL       MOSUNNY   70  40  33 N10G17    29.92F
SOMERVILLE     SUNNY     71  40  32 NW12G24   29.93S
ALLAIRE*       SUNNY     68  45  42 W12G20    29.96F
TOMS RIVER*    SUNNY     70  45  40 W12       29.98F

$$
PAZ043-044-047-054-055-060>062-066>071-221700-
EASTERN PENNSYLVANIA

CITY           SKY/WX    TMP DP  RH WIND       PRES   REMARKS
PHILADELPHIA   MOSUNNY   72  38  29 W18G26    30.01R
NORTH PHILA    SUNNY     73  40  30 NW16G24   30.00S
BLUE BELL      SUNNY     70  41  35 W15G23    29.99R
DOYLESTOWN     SUNNY     69  40  34 W10G22    29.97S
QUAKERTOWN*    SUNNY     68  41  37 NW15G21   30.00R
POTTSTOWN      SUNNY     69  42  37 W10G21    30.01S
LANCASTER        N/A    N/A N/A N/A NW17G26   30.03S
COATESVILLE    SUNNY     66  41  39 NW20G25   30.04R
READING        MOSUNNY   71  41  33 NW15G25   30.00S
ALLENTOWN      SUNNY     69  41  36 W14G23    29.98S
MOUNT POCONO   PTSUNNY   60  38  43 NW17G24   29.96F
HAZLETON       MOSUNNY   61  43  51 W13G18    30.02F
WILKES BARRE   PTSUNNY   63  42  46 SW8       29.96F

$$
DEZALL-MDZ008-012-015-019-020-221700-
DELAWARE AND EASTERN MARYLAND

CITY           SKY/WX    TMP DP  RH WIND       PRES   REMARKS
WILMINGTON     SUNNY     71  43  36 NW20G26   30.03S
DOVER          SUNNY     67  49  52 W14       30.03R
GEORGETOWN     SUNNY     67  45  45 W12G18    30.08R
EASTON         SUNNY     68  50  52 NW12G17   30.13R
ABERDEEN       SUNNY     70  43  37 W12       30.03R
PATUXENT       SUNNY     69  45  41 NW15G23   30.11R
OCEAN CITY     SUNNY     68  47  46 NW13      30.07R
WALLOPS ISLAND MOSUNNY   68  47  46 NW14G20   30.09S
CAMBRIDGE      SUNNY     66  45  45 NW13      30.10S
SALISBURY      SUNNY     67  45  45 NW16G22   30.08S

$$
PAZ001-021-NYZ056-072-MDZ011-DCZ001-221700-
OTHER NEARBY LOCATIONS

CITY           SKY/WX    TMP DP  RH WIND       PRES   REMARKS
HARRISBURG     PTSUNNY   67  41  38 NW18      30.03S
STATE COLLEGE  PTSUNNY   61  45  55 W14G23    30.05S
WILLIAMSPORT   MOSUNNY   66  43  43 W14G24    29.99F
BINGHAMTON     CLOUDY    55  35  47 NW14G21   29.98R
NEW YORK CITY  MOSUNNY   72  39  30 VRB7G21   29.94F
BALTIMORE      MOSUNNY   69  42  37 W16G22    30.08R
WASHINGTON DC  MOSUNNY   72  44  36 W13G21    30.12R

$$



USA.gov is the U.S. government's official web portal to all federal, state and local government web resources and services.